Vorticity
5 4 3 4 5 6 10 -1 -6 -2 2 2 -1 3 -8 24 -5 -2 5 6 8 9 6 5 5 6 8 7 5 6 6 5 6 8 6 6 5 7 5 5 4 3 5 6 7 6 4 6 6
11 8 2 6 10 9 6 -4 5 -6 0 1 -4 -0 1 3 -16 -7 8 3 6 1 7 4 4 3 4 6 7 4 5 7 7 6 8 5 6 6 6 5 5 3 4 6 5 8 6 5 10
7 11 8 6 14 5 3 2 -1 -8 -1 4 -5 -2 3 4 6 -2 3 2 -1 6 11 3 3 3 3 3 4 8 5 4 6 7 6 8 6 6 7 7 5 3 2 4 6 5 8 7 5
13 8 8 10 2 8 7 7 -3 -5 -1 1 3 1 1 7 -5 -4 0 2 -0 8 13 4 4 3 3 2 2 4 6 7 5 5 7 7 8 7 6 7 9 7 3 2 5 4 5 6 7
-5 7 12 3 3 -2 5 5 -0 -8 1 8 2 3 2 -8 -4 -4 -2 1 -3 12 14 6 3 3 3 2 1 1 3 4 7 6 5 7 6 7 7 5 6 9 9 4 3 6 5 6 4
-5 1 11 9 3 7 5 6 10 -2 -0 3 10 1 1 11 7 -3 -3 3 5 13 11 4 5 3 4 4 2 2 1 2 4 6 5 5 7 6 6 7 6 5 7 11 7 4 7 7 5
33 4 3 9 1 12 6 6 10 2 0 1 4 3 2 8 -7 4 -5 -1 5 9 4 4 3 0 1 4 4 3 3 2 3 4 6 5 4 7 6 6 6 6 6 6 9 9 5 4 6
0 29 4 3 -1 0 17 12 6 4 6 5 2 5 5 -4 6 4 2 -0 -0 5 10 3 -1 -1 2 5 4 4 5 4 3 3 5 6 6 4 6 6 6 6 7 8 7 5 8 5 4
1 -5 20 4 2 -15 -1 17 13 5 3 3 3 3 3 6 -5 -1 10 0 1 2 6 8 6 3 3 2 4 3 4 4 4 4 4 5 6 7 4 6 7 6 6 6 6 7 6 5 5
5 9 21 -7 8 6 -5 1 17 9 5 5 1 5 3 2 4 -1 3 3 3 -2 10 11 6 5 5 4 3 3 4 4 5 4 6 5 4 6 8 4 5 6 6 6 5 5 5 5 5
12 6 8 19 2 6 17 -2 -5 20 8 10 4 2 5 2 5 1 1 6 2 -1 6 2 9 3 4 3 3 4 3 4 4 5 5 6 7 4 6 9 5 5 5 5 5 5 5 5 5
26 -10 21 2 12 5 -2 8 11 1 7 7 13 1 5 7 2 1 1 6 9 -2 5 1 -1 6 2 2 1 2 3 2 3 5 5 5 7 6 4 5 8 8 5 4 3 4 4 5 5
-0 15 13 -2 6 7 7 2 3 16 9 7 14 3 5 7 3 2 -0 0 9 -7 2 2 3 3 3 3 2 2 3 2 3 4 6 6 7 8 5 4 5 7 8 8 6 5 5 6 4
11 10 4 7 15 2 10 14 3 6 10 13 10 -2 6 6 5 2 1 0 -4 -11 6 2 4 3 4 2 1 3 3 2 4 3 3 6 8 12 8 5 6 5 6 7 8 8 7 7 7
6 11 7 6 3 6 9 5 8 4 19 9 15 9 -1 5 5 6 2 3 1 11 -5 5 3 5 4 2 2 2 4 3 2 3 3 2 5 9 12 9 4 3 5 5 6 6 6 5 6
8 8 7 8 7 6 3 17 6 16 -2 10 13 13 4 2 4 6 8 3 2 2 -5 7 7 3 6 5 3 2 4 2 2 2 3 3 2 6 11 10 9 7 6 4 4 5 5 5 5
17 9 8 6 7 7 5 3 13 6 17 -6 3 11 12 -2 4 4 7 5 5 4 11 3 16 10 3 7 4 2 2 2 3 3 2 3 3 4 6 9 9 7 8 6 5 5 5 6 5
20 21 10 7 7 5 8 3 5 9 6 22 -6 6 8 6 -1 3 4 4 5 4 4 2 -1 13 9 -1 1 1 -1 0 3 4 2 2 7 6 4 5 7 10 8 7 6 6 6 6 6
30 25 22 15 8 6 5 5 6 3 8 2 20 9 8 6 4 0 -1 -2 1 2 7 1 9 24 4 17 10 6 5 3 3 3 3 1 0 4 5 4 5 7 7 8 8 9 7 6 6
35 38 30 24 15 8 7 5 5 7 2 7 9 2 8 11 3 3 3 3 2 4 7 7 -4 -4 2 8 11 5 7 3 3 2 2 4 2 4 5 3 3 5 5 6 6 6 7 8 8
38 54 44 40 22 10 17 4 5 5 7 3 7 17 6 3 8 4 4 5 3 5 5 9 -1 3 0 2 4 12 4 5 4 4 5 1 -1 4 4 3 4 6 4 5 7 7 5 7 7
16 13 42 49 40 8 20 37 17 10 5 10 4 7 3 8 8 9 3 4 7 6 6 3 -1 -2 5 10 6 9 8 5 6 3 1 6 1 3 1 2 2 3 4 4 3 4 5 5 6
10 35 26 45 35 43 27 9 23 48 3 15 9 8 12 3 3 2 6 10 5 8 14 16 15 10 12 8 16 8 6 8 7 6 3 3 3 3 0 2 1 2 3 3 4 4 4 5 5
34 20 15 39 45 9 31 27 -14 25 39 10 16 6 11 12 7 6 -0 5 3 2 1 3 12 6 17 1 4 3 6 6 3 7 9 10 6 6 5 0 5 3 2 3 3 1 3 3 1
25 8 19 16 25 -11 25 28 17 12 12 49 25 18 11 12 19 3 4 15 -3 4 2 4 8 -1 -1 -15 -27 -10 4 7 5 7 6 6 7 7 5 7 5 2 3 3 -0 2 -0 0 1
21 14 20 27 35 7 40 20 -5 15 11 12 39 19 14 12 11 15 6 -4 5 4 -2 6 1 -9 10 16 25 8 8 -2 2 6 5 7 7 6 10 4 2 -2 -5 -4 -5 4 1 4 0
9 6 12 15 28 27 26 -39 55 24 -6 -4 5 41 23 12 10 17 4 18 8 3 6 6 -3 -6 -5 -3 1 -2 1 12 2 0 -2 -3 2 5 7 6 5 1 3 7 -11 19 -1 -3 1
7 13 -2 6 15 11 45 5 -2 -10 25 41 23 13 26 17 17 18 28 2 15 8 2 6 23 23 15 5 -2 7 7 7 10 9 4 4 2 9 2 -2 25 5 14 65 -15 -7 46 1 2
9 11 -17 22 2 0 11 39 -14 -25 -11 4 12 35 10 23 29 13 11 28 9 6 29 6 -6 -4 20 22 18 11 14 12 8 12 7 5 6 16 9 7 14 12 -46 26 42 81 9 88 3
12 6 29 12 1 32 -7 -2 17 48 22 11 -4 23 10 3 14 24 19 14 15 23 16 -3 15 5 -17 -21 -17 -3 13 -3 13 6 2 -1 3 6 33 -36 8 -8 20 27 25 -4 -49 12 60
Height
5844 5848 5851 5855 5861 5861 5866 5870 5872 5871 5870 5873 5876 5878 5881 5880 5881 5883 5884 5885 5886 5885 5884 5884 5882 5881 5880 5879 5878 5878 5879 5879 5881 5882 5882 5882 5883 5883 5883 5883 5885 5885 5885 5886 5887 5887 5887 5887 5888
5839 5843 5846 5849 5853 5857 5864 5866 5868 5868 5868 5870 5872 5876 5878 5880 5880 5880 5884 5885 5886 5885 5885 5884 5883 5882 5882 5881 5879 5879 5880 5881 5882 5883 5884 5884 5884 5885 5884 5885 5885 5886 5886 5887 5888 5888 5889 5890 5890
5834 5837 5841 5843 5846 5852 5860 5863 5865 5866 5866 5865 5869 5873 5876 5880 5878 5878 5882 5884 5885 5884 5885 5885 5884 5883 5883 5882 5881 5881 5882 5882 5883 5884 5885 5885 5885 5886 5886 5886 5887 5887 5888 5888 5889 5890 5891 5892 5893
5829 5832 5835 5837 5842 5850 5856 5859 5860 5860 5862 5861 5865 5870 5873 5876 5876 5877 5880 5881 5884 5884 5884 5884 5884 5884 5885 5884 5883 5883 5883 5883 5884 5885 5885 5886 5886 5887 5887 5888 5888 5888 5889 5890 5891 5892 5893 5894 5895
5823 5826 5827 5831 5838 5845 5850 5853 5855 5857 5858 5857 5861 5864 5870 5872 5873 5875 5878 5880 5882 5883 5883 5883 5884 5884 5885 5885 5885 5884 5885 5885 5885 5885 5886 5886 5886 5887 5887 5889 5889 5890 5890 5891 5892 5893 5894 5895 5896
5815 5818 5821 5826 5833 5838 5843 5847 5849 5853 5854 5853 5855 5861 5865 5869 5872 5872 5875 5878 5880 5882 5882 5883 5883 5884 5885 5885 5886 5885 5886 5886 5885 5885 5886 5886 5886 5887 5888 5889 5889 5890 5891 5892 5893 5894 5895 5896 5897
5807 5809 5813 5819 5826 5833 5837 5839 5843 5846 5849 5848 5849 5856 5862 5865 5868 5871 5873 5875 5877 5879 5881 5883 5883 5883 5884 5885 5886 5885 5886 5886 5886 5886 5886 5886 5887 5887 5888 5889 5890 5890 5891 5892 5893 5894 5895 5896 5897
5799 5800 5806 5812 5820 5826 5830 5832 5835 5839 5842 5844 5845 5850 5856 5859 5865 5867 5869 5871 5873 5876 5878 5880 5882 5882 5883 5885 5885 5886 5886 5886 5886 5886 5887 5887 5887 5887 5888 5889 5890 5890 5891 5892 5893 5894 5894 5895 5896
5790 5794 5800 5807 5813 5818 5821 5824 5827 5831 5837 5838 5839 5845 5850 5853 5858 5862 5865 5867 5870 5873 5876 5878 5879 5880 5881 5883 5884 5885 5885 5886 5885 5885 5886 5887 5888 5888 5888 5889 5890 5890 5891 5892 5893 5893 5894 5894 5894
5780 5786 5793 5796 5800 5804 5810 5815 5818 5824 5828 5833 5832 5838 5844 5847 5852 5856 5862 5864 5867 5869 5872 5874 5877 5878 5879 5881 5882 5883 5884 5884 5885 5885 5885 5886 5887 5888 5888 5888 5889 5890 5891 5891 5892 5893 5893 5893 5893
5772 5782 5784 5782 5787 5793 5800 5806 5812 5815 5821 5825 5824 5831 5838 5842 5845 5850 5856 5859 5862 5864 5867 5871 5873 5875 5877 5879 5880 5881 5882 5882 5883 5884 5884 5885 5886 5887 5887 5888 5888 5889 5890 5891 5891 5892 5892 5893 5893
5763 5772 5772 5770 5771 5781 5789 5794 5802 5809 5817 5817 5818 5825 5829 5836 5839 5844 5849 5853 5857 5860 5862 5866 5869 5873 5875 5876 5877 5878 5879 5880 5881 5882 5882 5883 5884 5885 5886 5886 5887 5887 5888 5889 5890 5890 5891 5892 5893
5753 5758 5755 5759 5759 5769 5778 5782 5788 5802 5810 5809 5813 5818 5820 5825 5831 5835 5840 5847 5851 5855 5857 5860 5864 5868 5871 5873 5874 5875 5876 5877 5878 5879 5880 5881 5881 5882 5883 5883 5884 5885 5885 5886 5887 5888 5888 5889 5889
5742 5741 5744 5748 5747 5757 5764 5767 5773 5798 5797 5800 5805 5810 5813 5816 5820 5824 5831 5839 5846 5850 5854 5856 5859 5862 5866 5868 5870 5872 5873 5874 5875 5876 5877 5878 5878 5879 5880 5881 5882 5882 5883 5883 5884 5884 5884 5885 5885
5726 5728 5732 5735 5736 5738 5744 5751 5763 5793 5786 5788 5794 5801 5804 5807 5809 5817 5824 5829 5836 5842 5846 5850 5853 5856 5859 5863 5865 5867 5869 5870 5871 5872 5873 5874 5875 5875 5876 5877 5878 5879 5880 5880 5880 5881 5881 5882 5882
5708 5710 5717 5720 5721 5719 5722 5741 5762 5772 5766 5775 5779 5786 5792 5797 5802 5807 5815 5820 5826 5833 5840 5844 5847 5850 5853 5856 5859 5861 5864 5866 5866 5868 5869 5870 5871 5872 5873 5873 5874 5875 5875 5876 5877 5877 5877 5878 5878
5685 5690 5694 5703 5704 5701 5708 5730 5746 5740 5750 5759 5766 5771 5778 5786 5790 5797 5803 5810 5816 5823 5829 5835 5839 5843 5846 5849 5852 5854 5856 5859 5862 5863 5865 5866 5867 5869 5869 5870 5870 5871 5871 5871 5872 5873 5873 5874 5874
5655 5663 5670 5679 5685 5681 5694 5712 5723 5721 5732 5743 5750 5758 5764 5772 5781 5787 5793 5799 5806 5814 5821 5826 5831 5834 5838 5841 5843 5846 5849 5853 5856 5859 5860 5861 5862 5864 5865 5866 5866 5867 5867 5867 5868 5868 5868 5868 5869
5626 5632 5640 5655 5659 5663 5675 5690 5700 5708 5718 5727 5737 5748 5755 5762 5767 5773 5783 5789 5796 5803 5812 5817 5821 5824 5828 5834 5838 5841 5845 5847 5849 5852 5854 5856 5856 5857 5861 5861 5861 5862 5863 5863 5863 5863 5863 5863 5864
5602 5604 5614 5624 5634 5638 5652 5665 5680 5693 5703 5714 5725 5734 5745 5753 5758 5761 5770 5776 5783 5792 5801 5806 5811 5814 5820 5825 5829 5832 5836 5838 5841 5843 5846 5849 5851 5852 5852 5854 5854 5856 5856 5857 5857 5858 5858 5858 5858
5591 5588 5592 5601 5611 5615 5626 5647 5661 5676 5686 5698 5711 5722 5731 5736 5746 5750 5753 5765 5773 5781 5790 5798 5801 5804 5810 5815 5817 5821 5825 5828 5831 5836 5840 5844 5845 5846 5847 5848 5848 5849 5849 5850 5852 5852 5852 5852 5852
5586 5579 5577 5585 5595 5605 5614 5629 5646 5658 5665 5677 5687 5699 5711 5719 5729 5738 5742 5748 5760 5770 5776 5784 5790 5794 5799 5801 5807 5812 5816 5821 5826 5830 5833 5834 5836 5838 5839 5841 5841 5841 5842 5842 5842 5843 5844 5844 5844
5582 5576 5573 5575 5584 5594 5605 5618 5632 5639 5648 5655 5668 5680 5695 5707 5715 5725 5732 5733 5743 5752 5762 5770 5778 5783 5788 5790 5795 5801 5805 5811 5815 5818 5822 5824 5827 5828 5830 5831 5832 5833 5834 5835 5834 5834 5834 5834 5835
5578 5573 5572 5570 5579 5586 5597 5612 5625 5630 5635 5642 5657 5671 5684 5693 5702 5712 5721 5726 5727 5737 5746 5756 5763 5771 5776 5781 5784 5789 5795 5800 5802 5807 5812 5815 5817 5818 5818 5819 5821 5824 5824 5825 5826 5826 5826 5826 5826
5578 5576 5574 5574 5576 5583 5596 5606 5618 5624 5627 5632 5644 5659 5669 5680 5690 5700 5708 5716 5721 5724 5730 5741 5752 5761 5767 5772 5775 5780 5785 5788 5791 5794 5798 5801 5804 5804 5807 5807 5807 5809 5812 5813 5814 5814 5815 5815 5815
5580 5578 5577 5577 5579 5590 5598 5605 5612 5618 5623 5627 5635 5646 5659 5670 5678 5687 5695 5702 5711 5717 5720 5726 5734 5744 5751 5758 5764 5768 5771 5775 5779 5783 5787 5788 5789 5790 5793 5793 5793 5793 5795 5797 5798 5799 5800 5801 5803
5585 5584 5584 5582 5585 5590 5598 5605 5607 5614 5617 5621 5627 5634 5647 5659 5668 5676 5683 5691 5699 5706 5712 5717 5720 5727 5734 5742 5748 5752 5756 5761 5765 5767 5770 5771 5771 5774 5776 5777 5779 5782 5783 5782 5785 5786 5785 5782 5787
5589 5589 5588 5587 5588 5592 5594 5601 5602 5605 5611 5616 5622 5629 5637 5646 5655 5663 5669 5676 5687 5693 5698 5703 5708 5712 5718 5725 5731 5736 5739 5744 5748 5751 5752 5753 5757 5760 5763 5762 5757 5767 5769 5755 5770 5773 5771 5768 5772
5593 5591 5590 5589 5590 5593 5592 5599 5605 5605 5606 5612 5618 5622 5628 5635 5644 5652 5659 5664 5671 5679 5686 5690 5694 5697 5702 5708 5714 5721 5725 5729 5733 5736 5736 5740 5743 5747 5746 5742 5731 5744 5754 5756 5760 5736 5736 5725 5754
5594 5592 5591 5591 5593 5595 5594 5598 5601 5604 5607 5612 5613 5617 5624 5628 5634 5641 5648 5655 5661 5665 5672 5678 5683 5688 5690 5695 5700 5704 5710 5714 5716 5720 5722 5726 5729 5730 5727 5725 5729 5737 5738 5744 5744 5739 5737 5737 5744